When you browse on this site, cookies collect data to enhance your experience and personalize the content and advertising you see.
Visit our Privacy Policy to learn more. By continuing to use the site, you agree to this use of cookies and data.
  • In Austria
  • List of Countries
  • For 7 days
  • Water Temperature
  • Satellite Maps
  • Weather Map
  • News
  • Weather Widgets
  • user-avatar
    Login

    Hourly Weather Rivne

    Today, 15 December, Saturday

    Time Temperature Precipitation Wind Pressure Humidity
    00:00 0°C° 0 mm 1 mps 735 mmHg 88%
    01:00 0°C° 0 mm 1 mps 735 mmHg 89%
    02:00 0°C° 0 mm 1 mps 735 mmHg 89%
    03:00 -2°C° 0 mm 2 mps 734 mmHg 88%
    04:00 +1°C° 0 mm 1 mps 734 mmHg 88%
    05:00 +1°C° 0 mm 1 mps 734 mmHg 86%
    06:00 +1°C° 0 mm 1 mps 733 mmHg 86%
    07:00 +1°C° 0 mm 1 mps 733 mmHg 88%
    08:00 -1°C° 0 mm 2 mps 733 mmHg 88%
    09:00 -1°C° 0 mm 2 mps 733 mmHg 85%
    10:00 -1°C° 0 mm 2 mps 733 mmHg 87%
    11:00 -1°C° 0.1 mm 3 mps 733 mmHg 91%
    12:00 -1°C° 0.1 mm 4 mps 733 mmHg 89%
    13:00 0°C° 0 mm 5 mps 732 mmHg 83%
    14:00 -2°C° 0 mm 6 mps 732 mmHg 88%
    15:00 -2°C° 0.3 mm 6 mps 732 mmHg 91%
    16:00 -3°C° 0.5 mm 6 mps 731 mmHg 91%
    17:00 -3°C° 0.8 mm 6 mps 731 mmHg 93%
    18:00 -3°C° 1 mm 6 mps 731 mmHg 95%
    19:00 -3°C° 0.6 mm 6 mps 731 mmHg 92%
    20:00 -3°C° 0.1 mm 6 mps 730 mmHg 92%
    21:00 -3°C° 0.1 mm 6 mps 730 mmHg 94%
    22:00 -2°C° 0.4 mm 5 mps 730 mmHg 98%
    23:00 -2°C° 0.9 mm 5 mps 730 mmHg 100%

    Tomorrow, 16 December, Sunday

    Time Temperature Precipitation Wind Pressure Humidity
    00:00 -1°C° 0.6 mm 5 mps 730 mmHg 100%
    01:00 -1°C° 0.3 mm 4 mps 730 mmHg 100%
    02:00 -1°C° 0.8 mm 4 mps 730 mmHg 100%
    03:00 0°C° 1.7 mm 4 mps 729 mmHg 100%
    04:00 +1°C° 0.7 mm 3 mps 729 mmHg 100%
    05:00 +2°C° 0.7 mm 3 mps 729 mmHg 100%
    06:00 +3°C° 0.8 mm 2 mps 729 mmHg 100%
    07:00 +4°C° 0.8 mm 1 mps 730 mmHg 100%
    08:00 +3°C° 0.4 mm 0 mps 730 mmHg 100%
    09:00 +3°C° 0.1 mm 1 mps 730 mmHg 100%
    10:00 +2°C° 0.1 mm 2 mps 731 mmHg 100%
    11:00 +2°C° 0.8 mm 1 mps 731 mmHg 100%
    12:00 +2°C° 1.1 mm 1 mps 732 mmHg 100%
    13:00 +2°C° 0.9 mm 1 mps 732 mmHg 100%
    14:00 +2°C° 0.2 mm 1 mps 732 mmHg 100%
    15:00 +2°C° 1.1 mm 1 mps 732 mmHg 100%
    16:00 -1°C° 1.1 mm 2 mps 733 mmHg 100%
    17:00 -1°C° 0.9 mm 2 mps 733 mmHg 100%
    18:00 0°C° 0.3 mm 1 mps 733 mmHg 100%
    19:00 0°C° 0 mm 1 mps 734 mmHg 100%
    20:00 -2°C° 0 mm 2 mps 734 mmHg 100%
    21:00 -3°C° 0.1 mm 2 mps 734 mmHg 100%
    22:00 -3°C° 0 mm 2 mps 734 mmHg 100%
    23:00 -3°C° 0 mm 2 mps 735 mmHg 100%

    Day after tomorrow, 17 December, Monday

    Time Temperature Precipitation Wind Pressure Humidity
    00:00 -3°C° 0 mm 2 mps 735 mmHg 100%
    01:00 -1°C° 0 mm 1 mps 734 mmHg 100%
    02:00 -1°C° 0 mm 1 mps 734 mmHg 100%
    03:00 -1°C° 0 mm 1 mps 734 mmHg 100%
    04:00 -2°C° 0 mm 1 mps 734 mmHg 100%
    05:00 -2°C° 0 mm 1 mps 734 mmHg 100%
    06:00 -3°C° 0 mm 0 mps 734 mmHg 100%
    07:00 -2°C° 0 mm 0 mps 734 mmHg 100%
    08:00 -1°C° 0 mm 1 mps 734 mmHg 100%
    09:00 -2°C° 0 mm 0 mps 734 mmHg 100%
    10:00 -2°C° 0 mm 0 mps 734 mmHg 99%
    11:00 -1°C° 0 mm 0 mps 734 mmHg 99%
    12:00 0°C° 0 mm 0 mps 734 mmHg 99%
    13:00 0°C° 0 mm 0 mps 733 mmHg 99%
    14:00 +1°C° 0 mm 0 mps 733 mmHg 99%
    15:00 +2°C° 0 mm 1 mps 733 mmHg 99%
    16:00 +1°C° 0 mm 2 mps 733 mmHg 100%
    17:00 +1°C° 0 mm 2 mps 733 mmHg 100%
    18:00 +2°C° 0 mm 1 mps 734 mmHg 100%
    19:00 +1°C° 0.1 mm 0 mps 734 mmHg 100%
    20:00 +1°C° 0.1 mm 0 mps 734 mmHg 100%
    21:00 +1°C° 0.3 mm 0 mps 734 mmHg 100%
    22:00 +1°C° 0.4 mm 0 mps 734 mmHg 100%
    23:00 +1°C° 0.4 mm 0 mps 734 mmHg 100%

    18 December, Tuesday

    Time Temperature Precipitation Wind Pressure Humidity
    00:00 +1°C° 0.7 mm 0 mps 735 mmHg 100%
    01:00 +1°C° 0.7 mm 0 mps 735 mmHg 100%
    02:00 +2°C° 0.4 mm 0 mps 735 mmHg 100%
    03:00 +2°C° 0.3 mm 0 mps 735 mmHg 100%
    04:00 +2°C° 0.4 mm 0 mps 735 mmHg 100%
    05:00 +2°C° 0.4 mm 0 mps 735 mmHg 100%
    06:00 +2°C° 0.3 mm 0 mps 735 mmHg 100%
    07:00 +2°C° 0.3 mm 0 mps 735 mmHg 100%
    08:00 +2°C° 0.2 mm 0 mps 736 mmHg 100%
    09:00 +3°C° 0.3 mm 1 mps 736 mmHg 100%
    10:00 +3°C° 0.3 mm 1 mps 737 mmHg 100%
    11:00 +2°C° 0.2 mm 0 mps 737 mmHg 100%
    12:00 +2°C° 0 mm 0 mps 737 mmHg 100%
    13:00 +3°C° 0 mm 0 mps 737 mmHg 100%
    14:00 +4°C° 0 mm 1 mps 737 mmHg 99%

    19 December, Wednesday

    Time Temperature Precipitation Wind Pressure Humidity

    20 December, Thursday

    Time Temperature Precipitation Wind Pressure Humidity
    Show more